Weather History for Pawtucket, RI

Change the Weather History Date:

Wednesday, December 14, 2011

  Actual Average Record
Temperature  
Mean Temperature 36 °F -  
Max Temperature 42 °F 40 °F 55 °F (2006)
Min Temperature 30 °F 25 °F 6 °F (2005)
Degree Days  
Heating Degree Days 29    
Moisture  
Dew Point 29 °F    
Average Humidity 75    
Maximum Humidity 86    
Minimum Humidity 61    
Precipitation  
Precipitation 0.00 in - - ()
Sea Level Pressure  
Sea Level Pressure 30.35 in    
Wind  
Wind Speed 5 mph (NNE)    
Max Wind Speed 9 mph    
Max Gust Speed -    
Visibility 10 miles    
Events      
Averages and records for this station are not official NWS values.
T = Trace of Precipitation, MM = Missing Value Source: NWS Daily Summary

Daily Weather History Graph

Daily Weather History Graph

Search for Another Location

Airport:

Trip Planner

Search our weather history database for the weather conditions in past years. The results will help you decide how hot, cold, wet, or windy it might be!

Date:

Astronomy

Dec. 14, 2011 Rise Set
Actual Time 7:05 AM EST 4:15 PM EST
Civil Twilight 6:34 AM EST 4:46 PM EST
Nautical Twilight 5:59 AM EST 5:22 PM EST
Astronomical Twilight 5:25 AM EST 5:55 PM EST
Moon 8:35 PM EST (12/14) 9:46 AM EST (12/14)
Length of Visible Light 10h 12m
Length of Day
9h 09m
Waning Gibbous, 83% of the Moon is Illuminated
Dec 14
Waning Gibbous
Dec 17
Last Quarter
Dec 24
New
Jan 1
First Quarter
Jan 9
Full

Hourly Weather History & Observations

Time (EST) Temp. Windchill Dew Point Humidity Pressure Visibility Wind Dir Wind Speed Gust Speed Precip Events Conditions
12:15 AM 33.8 °F 29.6 °F 24.8 °F 70% 30.30 in 10.0 mi North 4.6 mph - N/A   Mostly Cloudy
12:35 AM 33.8 °F 29.6 °F 26.6 °F 75% 30.30 in 10.0 mi North 4.6 mph - N/A   Scattered Clouds
12:55 AM 33.8 °F 29.6 °F 26.6 °F 75% 30.30 in 10.0 mi North 4.6 mph - N/A   Clear
1:35 AM 33.8 °F 29.6 °F 26.6 °F 75% 30.31 in 10.0 mi North 4.6 mph - N/A   Mostly Cloudy
2:15 AM 32.0 °F 27.5 °F 26.6 °F 80% 30.32 in 10.0 mi North 4.6 mph - N/A   Clear
2:35 AM 32.0 °F 25.6 °F 26.6 °F 80% 30.31 in 10.0 mi North 6.9 mph - N/A   Clear
2:55 AM 33.8 °F 27.0 °F 26.6 °F 75% 30.31 in 10.0 mi North 8.1 mph - N/A   Clear
3:15 AM 33.8 °F 28.6 °F 26.6 °F 75% 30.31 in 10.0 mi North 5.8 mph - N/A   Clear
3:56 AM 30.2 °F 25.4 °F 26.6 °F 86% 30.31 in 10.0 mi North 4.6 mph - N/A   Clear
4:35 AM 30.2 °F 23.4 °F 26.6 °F 86% 30.32 in 10.0 mi NNW 6.9 mph - N/A   Clear
4:55 AM 32.0 °F 26.4 °F 26.6 °F 80% 30.32 in 10.0 mi North 5.8 mph - N/A   Mostly Cloudy
5:15 AM 33.8 °F 29.6 °F 28.4 °F 81% 30.33 in 10.0 mi North 4.6 mph - N/A   Overcast
5:35 AM 35.6 °F 29.9 °F 28.4 °F 75% 30.33 in 10.0 mi NNE 6.9 mph - N/A   Overcast
6:35 AM 35.6 °F 29.9 °F 28.4 °F 75% 30.34 in 10.0 mi North 6.9 mph - N/A   Overcast
6:55 AM 35.6 °F 31.7 °F 28.4 °F 75% 30.35 in 10.0 mi North 4.6 mph - N/A   Overcast
7:15 AM 35.6 °F 29.9 °F 28.4 °F 75% 30.35 in 10.0 mi North 6.9 mph - N/A   Overcast
7:35 AM 35.6 °F 30.7 °F 28.4 °F 75% 30.36 in 10.0 mi North 5.8 mph - N/A   Overcast
7:55 AM 35.6 °F 30.7 °F 30.2 °F 81% 30.37 in 10.0 mi North 5.8 mph - N/A   Overcast
8:15 AM 35.6 °F 30.7 °F 30.2 °F 81% 30.37 in 10.0 mi North 5.8 mph - N/A   Overcast
8:35 AM 35.6 °F 29.9 °F 30.2 °F 81% 30.38 in 10.0 mi North 6.9 mph - N/A   Overcast
8:55 AM 37.4 °F 32.1 °F 30.2 °F 75% 30.38 in 10.0 mi North 6.9 mph - N/A   Overcast
9:15 AM 35.6 °F 29.2 °F 30.2 °F 81% 30.38 in 10.0 mi NNE 8.1 mph - N/A   Mostly Cloudy
9:36 AM 37.4 °F 30.8 °F 30.2 °F 75% 30.38 in 10.0 mi NNE 9.2 mph - N/A   Mostly Cloudy
9:55 AM 39.2 °F 33.6 °F 32.0 °F 75% 30.38 in 10.0 mi NNE 8.1 mph - N/A   Mostly Cloudy
10:15 AM 39.2 °F 33.0 °F 32.0 °F 75% 30.38 in 10.0 mi NNE 9.2 mph - N/A   Overcast
10:35 AM 39.2 °F 35.0 °F 32.0 °F 75% 30.38 in 10.0 mi NE 5.8 mph - N/A   Overcast
10:55 AM 39.2 °F 35.0 °F 32.0 °F 75% 30.38 in 10.0 mi NE 5.8 mph - N/A   Overcast
11:15 AM 39.2 °F 33.6 °F 32.0 °F 75% 30.38 in 10.0 mi NNE 8.1 mph - N/A   Overcast
11:56 AM 42.8 °F 38.6 °F 32.0 °F 66% 30.37 in 10.0 mi NNE 6.9 mph - N/A   Overcast
12:35 PM 42.8 °F 38.0 °F 30.2 °F 61% 30.37 in 10.0 mi NE 8.1 mph - N/A   Overcast
1:15 PM 41.0 °F 37.1 °F 30.2 °F 65% 30.36 in 10.0 mi NNE 5.8 mph - N/A   Overcast
1:35 PM 41.0 °F 38.0 °F 30.2 °F 65% 30.36 in 10.0 mi North 4.6 mph - N/A   Overcast
2:16 PM 41.0 °F 37.1 °F 30.2 °F 65% 30.35 in 10.0 mi North 5.8 mph - N/A   Overcast
2:55 PM 41.0 °F 37.1 °F 30.2 °F 65% 30.35 in 10.0 mi NNE 5.8 mph - N/A   Overcast
3:15 PM 41.0 °F 38.0 °F 30.2 °F 65% 30.36 in 10.0 mi North 4.6 mph - N/A   Overcast
3:35 PM 41.0 °F 39.0 °F 30.2 °F 65% 30.37 in 10.0 mi NNW 3.5 mph - N/A   Overcast
5:35 PM 39.2 °F 37.0 °F 30.2 °F 70% 30.38 in 10.0 mi ENE 3.5 mph - N/A   Overcast
5:55 PM 39.2 °F - 30.2 °F 70% 30.38 in 10.0 mi Calm Calm - N/A   Overcast
6:15 PM 37.4 °F - 30.2 °F 75% 30.39 in 10.0 mi Calm Calm - N/A   Overcast
7:16 PM 37.4 °F 33.8 °F 30.2 °F 75% 30.38 in 10.0 mi East 4.6 mph - N/A   Overcast
8:15 PM 35.6 °F 32.8 °F 28.4 °F 75% 30.37 in 10.0 mi SE 3.5 mph - N/A   Clear
8:35 PM 35.6 °F 32.8 °F 28.4 °F 75% 30.36 in 10.0 mi SSE 3.5 mph - N/A   Clear
8:55 PM 33.8 °F 30.8 °F 28.4 °F 81% 30.36 in 10.0 mi SE 3.5 mph - N/A   Clear
9:55 PM 35.6 °F - 30.2 °F 81% 30.35 in 10.0 mi Calm Calm - N/A   Partly Cloudy
10:36 PM 37.4 °F - 28.4 °F 70% 30.35 in 10.0 mi Calm Calm - N/A   Mostly Cloudy
11:15 PM 37.4 °F 34.9 °F 30.2 °F 75% 30.33 in 10.0 mi SSE 3.5 mph - N/A   Overcast
11:35 PM 35.6 °F - 28.4 °F 75% 30.33 in 10.0 mi Calm Calm - N/A   Mostly Cloudy
11:55 PM 35.6 °F - 30.2 °F 81% 30.33 in 10.0 mi Calm Calm - N/A   Clear